Stations météo

réclame
Mon MeteoGroup
Lichteiland Goeree, Pays-Bas (6320): Température de l'air & dewpoint: 17.10.2018 01:00:00 - 23.10.2018 01:00:00 (CEST)Lichteiland Goeree, Pays-Bas (6320): water temperature: 17.10.2018 01:00:00 - 23.10.2018 01:00:00 (CEST)Lichteiland Goeree, Pays-Bas (6320): Vitesse du vent & gusts: 17.10.2018 01:00:00 - 23.10.2018 01:00:00 (CEST)Lichteiland Goeree, Pays-Bas (6320): Direction du vent: 17.10.2018 01:00:00 - 23.10.2018 01:00:00 (CEST)Lichteiland Goeree, Pays-Bas (6320): reduced air pressure: 17.10.2018 01:00:00 - 23.10.2018 01:00:00 (CEST)Lichteiland Goeree, Pays-Bas (6320): visibility: 17.10.2018 01:00:00 - 23.10.2018 01:00:00 (CEST)
Date & Time tt [°C] td [°C] tw [°C] ff [km/h] ff [knt] fx [km/h] fx [knt] dd ppp [hPa] vv [km]
23.10.2018 01:00:00 - - - - - - - - - -
23.10.2018 00:00:00 12,6 4,7 16,0 29 16 32 18 WNW 1033,9 10
22.10.2018 23:00:00 12,6 5,7 16,0 24 13 29 16 WNW 1034,9 10
22.10.2018 22:00:00 12,6 5,2 16,0 24 13 29 16 NW 1034,4 10
22.10.2018 21:00:00 12,7 4,0 16,0 16 9 25 14 NNW 1034,8 10
22.10.2018 20:00:00 12,9 4,6 16,0 22 12 29 16 N 1035,0 10
22.10.2018 19:00:00 12,8 4,3 16,0 26 14 29 16 N 1034,7 10
22.10.2018 18:00:00 12,8 3,7 16,0 28 15 32 18 N 1034,7 10
22.10.2018 17:00:00 13,0 4,0 16,0 26 14 36 19 N 1034,6 10
22.10.2018 16:00:00 13,2 5,6 16,0 26 14 36 19 N 1034,4 10
22.10.2018 15:00:00 13,3 4,3 16,0 31 17 43 23 N 1034,3 10
22.10.2018 14:00:00 13,3 5,4 16,0 34 18 40 21 NNE 1034,3 10
22.10.2018 13:00:00 13,2 5,8 16,0 29 16 43 23 N 1034,0 10
22.10.2018 12:00:00 13,3 6,2 16,0 35 19 40 21 N 1033,8 10
22.10.2018 11:00:00 13,5 6,3 16,0 37 20 43 23 N 1033,3 10
22.10.2018 10:00:00 13,5 5,6 16,0 41 22 47 25 N 1032,5 10
22.10.2018 09:00:00 13,9 6,9 16,0 41 22 50 27 N 1031,6 10
22.10.2018 08:00:00 14,1 7,8 16,0 42 23 50 27 N 1030,5 10
22.10.2018 07:00:00 14,0 7,6 16,0 46 25 50 27 N 1029,8 10
22.10.2018 06:00:00 14,4 9,6 16,0 44 24 50 27 N 1029,1 10
22.10.2018 05:00:00 14,5 11,1 16,0 42 23 43 23 N 1028,6 10
22.10.2018 04:00:00 14,0 12,3 16,0 42 23 47 25 N 1028,1 8
22.10.2018 03:00:00 14,0 12,1 16,0 48 26 47 25 N 1027,5 10
22.10.2018 02:00:00 14,9 13,5 16,0 41 22 47 25 N 1027,1 10
22.10.2018 01:00:00 15,9 13,7 16,0 29 16 43 23 N 1026,8 10
22.10.2018 00:00:00 16,2 13,2 16,0 28 15 36 19 NNW 1026,5 10
21.10.2018 23:00:00 16,2 13,6 16,0 22 12 25 14 WNW 1026,3 10
21.10.2018 22:00:00 15,9 13,5 16,0 22 12 25 14 W 1026,2 10
21.10.2018 21:00:00 15,7 12,3 16,0 24 13 29 16 W 1026,3 10
21.10.2018 20:00:00 15,9 10,1 16,0 28 15 29 16 SW 1026,0 10
21.10.2018 19:00:00 15,6 10,1 16,0 26 14 25 14 SW 1025,7 10
21.10.2018 18:00:00 15,5 11,4 16,0 24 13 25 14 SW 1025,8 10
21.10.2018 17:00:00 15,2 11,2 16,0 24 13 25 14 SSW 1026,2 9
21.10.2018 16:00:00 15,1 10,6 16,0 26 14 25 14 SW 1026,5 10
21.10.2018 15:00:00 14,8 10,5 16,0 28 15 29 16 SW 1027,1 10
21.10.2018 14:00:00 14,6 9,9 16,0 28 15 29 16 SSW 1027,3 10
21.10.2018 13:00:00 14,5 9,7 16,0 26 14 25 14 SW 1027,9 10
21.10.2018 12:00:00 14,5 9,9 16,0 24 13 25 14 SW 1028,3 10
21.10.2018 11:00:00 14,4 9,7 16,0 26 14 29 16 SW 1028,3 10
21.10.2018 10:00:00 14,4 9,9 16,0 24 13 29 16 SSW 1028,5 10
21.10.2018 09:00:00 14,2 9,9 16,0 22 12 25 14 SW 1028,2 10
21.10.2018 08:00:00 14,1 10,4 16,0 24 13 25 14 SSW 1028,0 10
21.10.2018 07:00:00 14,3 10,4 16,0 22 12 25 14 SW 1028,3 10
21.10.2018 06:00:00 14,3 9,8 16,0 24 13 25 14 SW 1028,4 10
21.10.2018 05:00:00 14,3 9,7 16,0 24 13 25 14 SW 1028,6 10
21.10.2018 04:00:00 14,2 10,1 16,0 24 13 25 14 SW 1029,0 10
21.10.2018 03:00:00 14,3 10,7 16,0 22 12 25 14 SW 1029,2 10
21.10.2018 02:00:00 14,6 10,5 16,0 21 11 22 12 SW 1029,7 10
21.10.2018 01:00:00 14,6 10,4 16,0 18 10 18 10 SW 1030,1 10
21.10.2018 00:00:00 14,6 10,5 16,0 16 9 18 10 WSW 1030,6 10
20.10.2018 23:00:00 14,4 10,6 16,0 16 9 18 10 SW 1030,5 10
20.10.2018 22:00:00 14,4 10,8 16,0 13 7 18 10 SW 1030,5 10
20.10.2018 21:00:00 14,4 10,7 16,0 15 8 14 8 SW 1030,6 10
20.10.2018 20:00:00 14,3 10,4 16,0 13 7 14 8 SW 1030,7 10
20.10.2018 19:00:00 14,2 10,3 16,0 13 7 18 10 WSW 1030,7 10
20.10.2018 18:00:00 14,4 10,2 16,0 15 8 22 12 WSW 1030,4 10
20.10.2018 17:00:00 14,3 9,7 16,0 18 10 22 12 SW 1030,5 10
20.10.2018 16:00:00 14,3 9,4 16,0 21 11 25 14 WSW 1030,9 10
20.10.2018 15:00:00 14,1 8,9 16,0 18 10 22 12 SW 1031,1 10
20.10.2018 14:00:00 14,2 9,2 16,0 21 11 22 12 SW 1031,4 10
20.10.2018 13:00:00 14,3 8,6 16,0 18 10 22 12 SW 1032,1 10
20.10.2018 12:00:00 14,0 9,0 17,0 16 9 22 12 SW 1031,9 10
20.10.2018 11:00:00 13,8 9,2 16,0 18 10 18 10 SSW 1031,5 10
20.10.2018 10:00:00 13,7 9,2 16,0 13 7 18 10 SSW 1031,1 10
20.10.2018 09:00:00 13,9 7,8 16,0 5 3 7 4 W 1030,4 10
20.10.2018 08:00:00 13,8 7,3 16,0 4 2 7 4 - 1029,9 10
20.10.2018 07:00:00 13,8 7,6 16,0 4 2 7 4 - 1029,8 10
20.10.2018 06:00:00 13,7 7,2 16,0 4 2 7 4 - 1029,3 10
20.10.2018 05:00:00 13,6 7,0 16,0 5 3 11 6 NNE 1028,8 10
20.10.2018 04:00:00 13,6 6,8 16,0 8 4 14 8 NNE 1028,7 10
20.10.2018 03:00:00 13,6 6,8 16,0 11 6 14 8 NE 1028,4 10
20.10.2018 02:00:00 13,6 6,9 16,0 13 7 14 8 N 1028,3 10
20.10.2018 01:00:00 13,4 7,0 16,0 13 7 14 8 N 1028,2 10
20.10.2018 00:00:00 13,3 7,0 16,0 13 7 18 10 NNE 1027,5 10
19.10.2018 23:00:00 13,1 6,7 16,0 13 7 18 10 NNE 1027,7 10
19.10.2018 22:00:00 13,0 7,1 16,0 16 9 18 10 NNE 1027,7 10
19.10.2018 21:00:00 13,0 6,5 16,0 18 10 22 12 NNE 1027,0 10
19.10.2018 20:00:00 13,1 6,6 16,0 18 10 22 12 N 1026,4 10
19.10.2018 19:00:00 13,0 7,4 16,0 18 10 22 12 N 1025,8 10
19.10.2018 18:00:00 13,0 7,4 17,0 15 8 22 12 N 1025,3 10
19.10.2018 17:00:00 13,2 8,4 16,0 15 8 18 10 N 1025,1 10
19.10.2018 16:00:00 13,2 7,9 16,0 13 7 14 8 NNE 1025,1 10
19.10.2018 15:00:00 13,2 7,8 17,0 13 7 14 8 NE 1025,2 10
19.10.2018 14:00:00 13,1 7,7 16,0 11 6 14 8 NE 1025,4 10
19.10.2018 13:00:00 12,6 8,4 16,0 11 6 18 10 ENE 1025,7 10
19.10.2018 12:00:00 12,4 8,4 16,0 15 8 18 10 ENE 1025,9 10
19.10.2018 11:00:00 12,1 8,1 16,0 21 11 29 16 E 1025,8 10
19.10.2018 10:00:00 12,0 7,7 16,0 24 13 25 14 ENE 1025,5 10
19.10.2018 09:00:00 12,0 7,5 16,0 24 13 25 14 ENE 1025,5 10
19.10.2018 08:00:00 12,1 7,2 16,0 26 14 29 16 E 1025,4 10
19.10.2018 07:00:00 12,2 5,6 16,0 31 17 32 18 E 1025,3 10
19.10.2018 06:00:00 12,0 6,6 16,0 34 18 36 19 E 1025,1 10
19.10.2018 05:00:00 12,2 6,2 17,0 31 17 32 18 E 1025,3 10
19.10.2018 04:00:00 12,4 6,9 17,0 29 16 32 18 E 1025,4 10
19.10.2018 03:00:00 12,7 6,7 17,0 31 17 32 18 E 1025,4 10
19.10.2018 02:00:00 13,0 8,1 17,0 31 17 32 18 E 1025,5 10
19.10.2018 01:00:00 13,6 8,0 17,0 29 16 32 18 E 1025,4 10
19.10.2018 00:00:00 14,2 8,8 16,0 34 18 36 19 E 1025,5 10
18.10.2018 23:00:00 14,4 9,7 16,0 31 17 36 19 ENE 1025,6 10
18.10.2018 22:00:00 14,6 9,2 16,0 29 16 32 18 ENE 1025,8 10
18.10.2018 21:00:00 14,7 6,8 16,0 31 17 36 19 ENE 1025,7 10
18.10.2018 20:00:00 14,8 8,2 16,0 28 15 32 18 NE 1025,3 10
18.10.2018 19:00:00 14,7 7,8 16,0 29 16 32 18 NE 1025,3 10
18.10.2018 18:00:00 14,6 7,2 17,0 26 14 32 18 NE 1025,0 10
18.10.2018 17:00:00 14,8 8,1 17,0 24 13 32 18 NE 1025,1 10
18.10.2018 16:00:00 14,7 7,6 17,0 22 12 36 19 NE 1025,3 34
18.10.2018 15:00:00 14,8 9,3 17,0 29 16 36 19 NE 1025,4 10
18.10.2018 14:00:00 14,6 9,2 17,0 31 17 36 19 NE 1025,3 10
18.10.2018 13:00:00 14,7 8,9 17,0 31 17 36 19 NE 1025,6 10
18.10.2018 12:00:00 14,5 9,6 17,0 34 18 36 19 NNE 1025,7 10
18.10.2018 11:00:00 14,8 10,4 17,0 29 16 32 18 NE 1025,5 10
18.10.2018 10:00:00 14,6 9,5 17,0 34 18 32 18 NE 1025,0 10
18.10.2018 09:00:00 14,8 10,2 17,0 31 17 36 19 NE 1024,5 10
18.10.2018 08:00:00 15,0 10,3 17,0 29 16 36 19 NE 1024,0 10
18.10.2018 07:00:00 15,1 10,8 17,0 34 18 36 19 NNE 1023,4 10
18.10.2018 06:00:00 15,2 10,8 17,0 35 19 40 21 NE 1023,3 10
18.10.2018 05:00:00 15,2 11,3 17,0 39 21 40 21 NNE 1022,9 10
18.10.2018 04:00:00 14,6 13,0 17,0 31 17 36 19 NNE 1022,9 7
18.10.2018 03:00:00 15,1 12,8 17,0 18 10 22 12 N 1022,9 10
18.10.2018 02:00:00 15,4 12,1 17,0 11 6 14 8 NNE 1022,8 10
18.10.2018 01:00:00 15,3 12,2 17,0 13 7 18 10 NNE 1022,7 10
18.10.2018 00:00:00 15,2 11,2 17,0 21 11 25 14 N 1022,3 10
17.10.2018 23:00:00 15,2 11,4 17,0 18 10 22 12 NNE 1022,0 10
17.10.2018 22:00:00 15,3 11,1 17,0 15 8 22 12 N 1021,7 10
17.10.2018 21:00:00 15,3 11,1 17,0 16 9 18 10 N 1021,1 10
17.10.2018 20:00:00 15,4 10,6 17,0 15 8 14 8 NW 1020,7 10
17.10.2018 19:00:00 15,4 10,3 17,0 11 6 14 8 NW 1020,3 10
17.10.2018 18:00:00 15,5 10,3 17,0 15 8 18 10 WNW 1019,9 10
17.10.2018 17:00:00 15,8 10,1 17,0 18 10 22 12 W 1019,8 10
17.10.2018 16:00:00 15,8 10,3 17,0 16 9 22 12 W 1019,6 10
17.10.2018 15:00:00 15,7 10,6 17,0 18 10 22 12 W 1019,4 10
17.10.2018 14:00:00 15,7 11,4 17,0 16 9 18 10 W 1019,3 10
17.10.2018 13:00:00 15,7 11,8 17,0 18 10 18 10 W 1019,3 10
17.10.2018 12:00:00 15,9 12,0 17,0 16 9 18 10 W 1019,3 10
17.10.2018 11:00:00 16,0 12,4 17,0 18 10 18 10 W 1019,2 10
17.10.2018 10:00:00 16,0 12,6 17,0 16 9 18 10 W 1018,9 10
17.10.2018 09:00:00 16,1 12,9 17,0 15 8 14 8 WSW 1018,5 10
17.10.2018 08:00:00 16,2 12,9 17,0 11 6 18 10 W 1018,1 10
17.10.2018 07:00:00 16,1 12,8 17,0 21 11 25 14 WNW 1017,9 10
17.10.2018 06:00:00 16,4 13,9 17,0 24 13 25 14 W 1017,6 10
17.10.2018 05:00:00 16,4 14,0 17,0 18 10 22 12 W 1017,3 10
17.10.2018 04:00:00 16,4 14,3 17,0 18 10 22 12 WSW 1017,2 10
17.10.2018 03:00:00 16,4 14,5 17,0 21 11 22 12 WSW 1017,4 10
17.10.2018 02:00:00 16,6 14,7 17,0 15 8 18 10 WSW 1017,3 10
17.10.2018 01:00:00 16,8 14,8 17,0 21 11 25 14 W 1017,4 10

tt = Température de l'air
td = dewpoint
tw = water temperature
ff = Vitesse du vent
fx = gusts
dd = Direction du vent
ppp = reduced air pressure
vv = visibility

stations d'obs. à proximité